C/2019 T3 ( ATLAS )

Japanese version
Home page
Updated on July 8, 2020

---------------------------------------------------------------------

* Profile

Discovery Date October 6, 2019
Magnitude 18.9 mag
Discoverer Asteroid Terrestrial-Impact Last Alert System (ATLAS) search program

* Pictures

* Orbital Elements

Epoch 2021 Mar. 7.0 TT = JDT 2459280.5
T 2021 Mar. 2.70182 TT                                  Rudenko
q   5.9465053            (2000.0)            P               Q
z  +0.0003001      Peri.  112.27603     +0.60544520     +0.57397151
 +/-0.0000026      Node   139.52071     -0.19750230     -0.56273560
e   0.9982154      Incl.  121.86227     +0.77099219     -0.59488264
From 200 observations 2019 Jan. 17-2020 June 23, mean residual 0".4.

* Magnitudes Graph

        m1 = -2.8 + 5 log d + 20.0 log r

---------------------------------------------------------------------

The orbital elements are published on M.P.E.C. 2020-M114.
The magnitudes graphs are made with Comet for Windows.

---------------------------------------------------------------------

Copyright(C) Seiichi Yoshida (comet@aerith.net). All rights reserved.